Date String (YYYY-MM-DD hh:mm:ss) UTC,Instrument flags,Ambient pressure (hPa),Sample flow (lpm),Bypass flow (lpm),Sample temperature (°C),Ambient temperature (°C),ASC tube jacket temperature (°C),LED temperature (°C),Box temperature (°C),Sample RH (%),Span deviation,Mass concentration (μg/m³),Mass concentration (μg/m³),Mass concentration (μg/m³)
DateTimeUTC,F1_M11,P_M11,Q1_M11,Q2_M11,T1_M11,T2_M11,T3_M11,T4_M11,T5_M11,U1_M11,ZSPAN_M11,X0_M11,X2_M11,X1_M11
2022-05-19 21:00:00,,0810.2,5.00,0.00,29.3,28.2,00.0,38.1,31.2,10.4,0000.0,0011.58,0003.70,0002.08
2022-05-19 21:01:00,,0810.2,5.00,0.00,29.3,28.3,00.0,38.1,31.3,09.8,0000.0,0011.64,0003.68,0002.06
2022-05-19 21:02:00,,0810.2,5.00,0.00,29.4,28.4,00.0,38.1,31.3,09.6,0000.0,0010.91,0003.67,0002.06
2022-05-19 21:03:00,,0810.1,5.00,0.00,29.4,28.5,00.0,38.2,31.4,09.8,0000.0,0011.13,0003.65,0002.08
2022-05-19 21:04:00,,0810.1,4.99,0.00,29.4,28.4,00.0,38.2,31.3,10.0,0000.0,0010.45,0003.60,0002.08
2022-05-19 21:05:00,,0810.1,5.01,0.00,29.4,27.5,00.0,38.1,31.1,10.0,0000.0,0009.89,0003.56,0002.06
2022-05-19 21:06:00,,0810.1,5.00,0.00,29.3,26.9,00.0,38.1,30.9,09.8,0000.0,0009.77,0003.54,0002.06
2022-05-19 21:07:00,,0810.1,4.99,0.00,29.2,26.9,00.0,38.0,30.9,09.8,0000.0,0009.74,0003.53,0002.08
2022-05-19 21:08:00,,0810.1,5.00,0.00,29.2,27.0,00.0,38.0,30.9,09.8,0000.0,0010.99,0003.53,0002.09
2022-05-19 21:09:00,,0810.1,5.01,0.00,29.2,27.2,00.0,38.0,30.9,10.2,0000.0,0011.10,0003.50,0002.10
2022-05-19 21:10:00,,0810.0,5.00,0.00,29.2,27.4,00.0,38.0,31.0,09.8,0000.0,0010.71,0003.49,0002.11
2022-05-19 21:11:00,,0809.9,5.00,0.00,29.2,27.6,00.0,38.0,31.0,10.4,0000.0,0011.21,0003.50,0002.10
2022-05-19 21:12:00,,0809.9,5.00,0.00,29.2,27.8,00.0,38.0,31.1,10.4,0000.0,0011.23,0003.51,0002.10
2022-05-19 21:13:00,,0809.9,5.00,0.00,29.2,27.9,00.0,38.1,31.1,10.0,0000.0,0011.02,0003.51,0002.12
2022-05-19 21:14:00,,0809.9,5.00,0.00,29.2,28.1,00.0,38.1,31.2,10.1,0000.0,0010.56,0003.49,0002.11
2022-05-19 21:15:00,,0809.9,5.00,0.00,29.3,28.2,00.0,38.1,31.2,10.3,0000.0,0010.92,0003.53,0002.11
2022-05-19 21:16:00,,0809.8,5.00,0.00,29.3,28.4,00.0,38.1,31.3,09.9,0000.0,0011.25,0003.57,0002.11
2022-05-19 21:17:00,,0809.8,5.01,0.00,29.4,28.5,00.0,38.1,31.3,09.7,0000.0,0011.29,0003.58,0002.11
2022-05-19 21:18:00,,0809.7,4.99,0.00,29.4,28.5,00.0,38.1,31.4,09.8,0000.0,0011.22,0003.62,0002.12
2022-05-19 21:19:00,,0809.8,5.00,0.00,29.4,27.9,00.0,38.1,31.2,09.7,0000.0,0009.87,0003.59,0002.13
2022-05-19 21:20:00,,0809.7,5.00,0.00,29.3,27.1,00.0,38.1,31.0,10.0,0000.0,0009.92,0003.60,0002.12
2022-05-19 21:21:00,,0809.7,5.01,0.00,29.2,26.9,00.0,38.0,30.9,10.1,0000.0,0009.96,0003.64,0002.11
2022-05-19 21:22:00,,0809.7,4.99,0.00,29.2,27.0,00.0,38.0,30.9,10.4,0000.0,0010.05,0003.72,0002.13
2022-05-19 21:23:00,,0809.7,4.98,0.00,29.2,27.1,00.0,38.0,30.9,09.8,0000.0,0010.27,0003.74,0002.14
2022-05-19 21:24:00,,0809.7,4.99,0.00,29.1,27.3,00.0,38.0,31.0,09.7,0000.0,0010.69,0003.72,0002.13
2022-05-19 21:25:00,,0809.5,5.00,0.00,29.2,27.5,00.0,38.0,31.0,09.9,0000.0,0010.78,0003.70,0002.13
2022-05-19 21:26:00,,0809.5,4.99,0.00,29.2,27.7,00.0,38.0,31.1,09.8,0000.0,0010.67,0003.70,0002.14
2022-05-19 21:27:00,,0809.5,4.99,0.00,29.2,27.9,00.0,38.0,31.1,09.8,0000.0,0010.63,0003.70,0002.15
2022-05-19 21:28:00,,0809.4,5.00,0.00,29.2,28.1,00.0,38.1,31.2,09.9,0000.0,0011.27,0003.68,0002.16
2022-05-19 21:29:00,,0809.2,5.01,0.00,29.3,28.2,00.0,38.1,31.2,10.1,0000.0,0011.99,0003.64,0002.15
2022-05-19 21:30:00,,0809.3,5.01,0.00,29.3,28.3,00.0,38.1,31.3,09.9,0000.0,0011.69,0003.63,0002.14
2022-05-19 21:31:00,,0809.4,5.00,0.00,29.4,28.4,00.0,38.1,31.3,09.9,0000.0,0011.98,0003.63,0002.14
2022-05-19 21:32:00,,0809.4,4.99,0.00,29.4,28.4,00.0,38.1,31.3,10.6,0000.0,0012.32,0003.62,0002.14
2022-05-19 21:33:00,,0809.3,4.99,0.00,29.4,27.8,00.0,38.1,31.1,10.4,0000.0,0011.93,0003.55,0002.12
2022-05-19 21:34:00,,0809.4,5.02,0.00,29.3,27.0,00.0,38.1,30.9,10.7,0000.0,0013.60,0003.54,0002.11
2022-05-19 21:35:00,,0809.3,5.00,0.00,29.2,26.9,00.0,38.0,30.9,10.7,0000.0,0014.05,0003.57,0002.10
2022-05-19 21:36:00,,0809.4,5.00,0.00,29.2,27.0,00.0,38.0,30.9,10.8,0000.0,0014.55,0003.59,0002.10
2022-05-19 21:37:00,,0809.4,5.00,0.00,29.1,27.2,00.0,38.0,30.9,10.8,0000.0,0015.14,0003.53,0002.10
2022-05-19 21:38:00,,0809.4,5.00,0.00,29.1,27.4,00.0,38.0,31.0,10.5,0000.0,0016.00,0003.51,0002.09
2022-05-19 21:39:00,,0809.4,5.00,0.00,29.2,27.6,00.0,38.0,31.0,10.1,0000.0,0016.97,0003.53,0002.10
2022-05-19 21:40:00,,0809.4,5.00,0.00,29.2,27.8,00.0,38.0,31.1,10.4,0000.0,0017.13,0003.56,0002.11
2022-05-19 21:41:00,,0809.3,5.00,0.00,29.2,28.0,00.0,38.0,31.2,10.5,0000.0,0017.33,0003.59,0002.11
2022-05-19 21:42:00,,0809.2,5.00,0.00,29.3,28.1,00.0,38.1,31.2,10.1,0000.0,0016.97,0003.62,0002.12
2022-05-19 21:43:00,,0809.2,4.99,0.00,29.3,28.3,00.0,38.1,31.3,10.4,0000.0,0016.69,0003.62,0002.13
2022-05-19 21:44:00,,0809.1,5.00,0.00,29.3,28.4,00.0,38.1,31.3,10.1,0000.0,0016.82,0003.64,0002.14
2022-05-19 21:45:00,,0809.1,5.01,0.00,29.4,28.5,00.0,38.1,31.4,10.2,0000.0,0015.00,0003.66,0002.12
2022-05-19 21:46:00,,0808.9,5.00,0.00,29.4,28.5,00.0,38.1,31.4,10.8,0000.0,0014.18,0003.66,0002.12
2022-05-19 21:47:00,,0809.0,5.00,0.00,29.4,27.8,00.0,38.1,31.2,10.9,0000.0,0013.97,0003.63,0002.12
2022-05-19 21:48:00,,0809.0,4.99,0.00,29.3,27.2,00.0,38.1,31.0,11.0,0000.0,0013.94,0003.68,0002.12
2022-05-19 21:49:00,,0809.1,5.00,0.00,29.3,27.1,00.0,38.0,31.0,10.7,0000.0,0013.92,0003.70,0002.12
2022-05-19 21:50:00,,0809.1,5.00,0.00,29.2,27.2,00.0,38.1,31.0,10.2,0000.0,0013.38,0003.67,0002.10
2022-05-19 21:51:00,,0809.2,5.00,0.00,29.2,27.4,00.0,38.1,31.0,10.1,0000.0,0012.17,0003.64,0002.09
2022-05-19 21:52:00,,0809.1,5.00,0.00,29.2,27.6,00.0,38.1,31.1,10.5,0000.0,0012.14,0003.63,0002.08
2022-05-19 21:53:00,,0809.1,5.01,0.00,29.2,27.8,00.0,38.1,31.1,09.9,0000.0,0012.22,0003.62,0002.07
2022-05-19 21:54:00,,0809.0,4.99,0.00,29.3,28.0,00.0,38.1,31.2,09.5,0000.0,0012.39,0003.59,0002.05
2022-05-19 21:55:00,,0808.9,5.00,0.00,29.3,28.1,00.0,38.1,31.3,09.6,0000.0,0012.23,0003.59,0002.05
2022-05-19 21:56:00,,0808.8,4.98,0.00,29.3,28.3,00.0,38.1,31.3,09.6,0000.0,0012.56,0003.58,0002.05
2022-05-19 21:57:00,,0808.9,5.00,0.00,29.4,28.4,00.0,38.1,31.4,09.7,0000.0,0014.44,0003.63,0002.07
2022-05-19 21:58:00,,0808.8,5.00,0.00,29.4,28.5,00.0,38.2,31.4,09.2,0000.0,0014.81,0003.65,0002.06
2022-05-19 21:59:00,,0808.9,5.00,0.00,29.4,27.9,00.0,38.1,31.3,09.3,0000.0,0014.96,0003.65,0002.05
